Location: ??????????
(44.2167°N, 135.5333°E)
Time: 14:11:30
(UTC+00:00)

Meteor 1-16 Rocket - Pass Details

Date: 15 June 2025
Orbit: 790 x 904 km, 81.2° (Epoch: 15 July)

Event Time Altitude Azimuth Distance (km) Brightness Sun altitude
Rises 12:58:25 0° 351° (N) 3,470 8.8 -17.1°
Reaches altitude 10° 13:00:52 10° 353° (N) 2,543 7.8 -17.3°
Maximum altitude 13:06:41 75° 79° (ENE) 927 4.3 -17.8°
Enters shadow 13:09:43 30° 159° (SSE) 1,552 5.0 -18.0°
